Location: Newark
(51.3318°N, 0.0053°E)
Time: 05:53:09
(UTC+00:00)

BlueWalker 3 - Pass Details

Date: 29 November 2022
Orbit: 499 x 517 km, 53.2° (Epoch: 28 January)

Event Time Altitude Azimuth Distance (km) Brightness Sun altitude
Rises 16:46:11 0° 236° (SW) 2,629 7.8 -7.5°
Reaches altitude 10° 16:48:24 10° 233° (SW) 1,740 6.2 -7.8°
Maximum altitude 16:52:17 59° 153° (SSE) 596 2.3 -8.4°
Enters shadow 16:55:52 12° 75° (ENE) 1,624 3.9 -8.9°
